Weather History for KFSI - July, 2013

Change the Weather History Date:

Monday, July 29, 2013

  Actual Average Record
Temperature  
Mean Temperature 82 °F -  
Max Temperature 90 °F 97 °F 107 °F (1986)
Min Temperature 74 °F 72 °F 65 °F (1969)
Cooling Degree Days 17    
Growing Degree Days 32 (Base 50)    
Moisture  
Dew Point 72 °F    
Average Humidity 74    
Maximum Humidity 94    
Minimum Humidity 51    
Precipitation  
Precipitation 0.02 in - - ()
Sea Level Pressure  
Sea Level Pressure 29.90 in    
Wind  
Wind Speed 12 mph (SSE)    
Max Wind Speed 22 mph    
Max Gust Speed 29 mph    
Visibility 10 miles    
Events Rain , Thunderstorm    
Averages and records for this station are not official NWS values.
T = Trace of Precipitation, MM = Missing Value Source: NWS Daily Summary

Daily Weather History Graph

Daily Weather History Graph

Search for Another Location

Airport or City:

Trip Planner

Search our weather history database for the weather conditions in past years. The results will help you decide how hot, cold, wet, or windy it might be!

Date:

Astronomy

Jul. 29, 2013 Rise Set
Actual Time 6:41 AM CDT 8:37 PM CDT
Civil Twilight 6:13 AM CDT 9:05 PM CDT
Nautical Twilight 5:40 AM CDT 9:39 PM CDT
Astronomical Twilight 5:03 AM CDT 10:15 PM CDT
Moon 12:21 AM CDT 2:03 PM CDT
Length of Visible Light 14h 51m
Length of Day
13h 56m
Waning Gibbous, 50% of the Moon is Illuminated
Jul 29
Waning Gibbous
Jul 29
Last Quarter
Aug 6
New
Aug 14
First Quarter
Aug 20
Full

Hourly Weather History & Observations

Time (CDT) Temp. Heat Index Dew Point Humidity Pressure Visibility Wind Dir Wind Speed Gust Speed Precip Events Conditions
12:58 AM 75.7 °F - 68.9 °F 79% 29.91 in 10.0 mi SE 10.4 mph - N/A   Clear
1:58 AM 76.1 °F - 68.7 °F 78% 29.91 in 10.0 mi SE 10.4 mph - N/A   Clear
2:58 AM 75.6 °F - 69.1 °F 80% 29.91 in 10.0 mi SE 8.1 mph - N/A   Clear
3:58 AM 75.0 °F - 68.9 °F 81% 29.89 in 10.0 mi SSE 9.2 mph - N/A   Clear
4:58 AM 74.3 °F - 69.1 °F 84% 29.89 in 10.0 mi SE 8.1 mph - N/A   Partly Cloudy
5:58 AM 74.7 °F - 69.6 °F 84% 29.89 in 10.0 mi SSE 11.5 mph - N/A   Mostly Cloudy
6:58 AM 74.3 °F - 70.0 °F 86% 29.89 in 10.0 mi SE 10.4 mph - N/A   Clear
7:58 AM 75.7 °F - 70.9 °F 85% 29.91 in 10.0 mi SSE 11.5 mph - N/A   Scattered Clouds
8:18 AM 77.0 °F - 71.6 °F 83% 29.94 in 10.0 mi SSE 12.7 mph - N/A Thunderstorm Thunderstorm
8:33 AM 78.8 °F - 71.6 °F 78% 29.94 in 10.0 mi SSE 18.4 mph 21.9 mph N/A Thunderstorm Partly Cloudy
8:47 AM 77.0 °F - 71.6 °F 83% 29.95 in 10.0 mi South 12.7 mph - N/A   Light Drizzle
8:58 AM 77.4 °F - 72.3 °F 84% 29.93 in 10.0 mi SSE 12.7 mph - 0.00 in Rain , Thunderstorm Light Rain
9:30 AM 75.2 °F - 73.4 °F 94% 29.95 in 10.0 mi SSE 9.2 mph - N/A   Overcast
9:58 AM 76.1 °F - 73.8 °F 92% 29.94 in 10.0 mi SSE 10.4 mph - 0.02 in   Scattered Clouds
10:58 AM 82.8 °F 88.7 °F 73.2 °F 73% 29.94 in 10.0 mi South 17.3 mph - N/A   Clear
11:58 AM 84.4 °F 90.3 °F 72.1 °F 67% 29.94 in 10.0 mi South 12.7 mph - N/A   Scattered Clouds
12:58 PM 87.6 °F 96.2 °F 74.1 °F 64% 29.91 in 10.0 mi SSE 17.3 mph 21.9 mph N/A   Scattered Clouds
1:58 PM 88.2 °F 98.0 °F 74.8 °F 65% 29.91 in 10.0 mi South 19.6 mph 25.3 mph N/A   Scattered Clouds
2:58 PM 89.6 °F 101.0 °F 76.1 °F 64% 29.90 in 10.0 mi SSE 17.3 mph 27.6 mph N/A   Partly Cloudy
3:58 PM 90.1 °F 101.8 °F 76.1 °F 63% 29.88 in 10.0 mi South 20.7 mph 28.8 mph N/A   Partly Cloudy
4:58 PM 90.5 °F 99.7 °F 73.9 °F 58% 29.86 in 10.0 mi South 19.6 mph 27.6 mph N/A   Clear
5:58 PM 90.7 °F 96.4 °F 70.3 °F 51% 29.83 in 10.0 mi South 15.0 mph - N/A   Clear
6:58 PM 89.4 °F 100.0 °F 75.2 °F 63% 29.83 in 10.0 mi SSE 21.9 mph 27.6 mph N/A   Clear
7:58 PM 87.4 °F 96.2 °F 74.5 °F 65% 29.84 in 10.0 mi SSE 16.1 mph 24.2 mph N/A   Clear
8:58 PM 85.3 °F 92.2 °F 73.0 °F 67% 29.86 in 10.0 mi SSE 12.7 mph - N/A   Clear
9:58 PM 84.6 °F 90.7 °F 72.7 °F 67% 29.86 in 10.0 mi SSE 13.8 mph 23.0 mph N/A   Scattered Clouds
10:58 PM 84.0 °F 89.9 °F 72.5 °F 68% 29.87 in 10.0 mi SSE 16.1 mph 23.0 mph N/A   Clear
11:58 PM 82.9 °F 88.0 °F 72.0 °F 69% 29.86 in 10.0 mi SSE 13.8 mph - N/A   Clear